STARLINK-36535, 67986

Orbit data source: Space-Track

STARLINK-36535, 67986 is a payload satellite owned by SpaceX/Seattle (US) in LEO that was launched on Fri, 27 Feb 2026 UTC via an FALCON 9 launch vehicle from the Air Force Eastern Test Range (AFETR). Payload-class satellites include a variety of spacecraft equipped with specific instruments for various scientific and technological missions. These include communications satellites like Starlink; space stations such as the ISS; scientific satellites like the Hubble; Earth observation satellites from companies like Planet Labs, Umbra, and HawkEye 360; GPS; miniature CubeSats for education and research; and military/defense satellites.

Loading next visibility...
Identifier
67986, 2026-039A
Orbit
LEO
Country
Flag of USUS
Related business
Manufacturer
SpaceX/Seattle
Mission
Operational Commercial Communications
Bus & Motor
STARLINK V2MO, Unknown motor
Mass
575 kg wet, ~530 kg dry
Launch date (UTC)
2026-02-27 (4 months ago)
Launch vehicle
FALCON 9
Launch site
Air Force Eastern Test Range (AFETR)
Object type
Payload
Rocket body
Debris
Shape & HBR
Box + 2 Pan, 17.7 m
Radar Cross Section
36.964 m², Large (>1 m²)

Expand to show TLE details & history
Last TLE update: 18 hours ago

TLE from 18 hours ago
0 STARLINK-36535
1 67986U 26039A   26171.11540453  .00012111  00000-0  44872-3 0  9990
2 67986  43.0027 190.8743 0002104 287.1620  72.9001 15.27593016 17364
Epoch: 2026-06-20T02:46Z
TLE epoch observation values (Epoch: 2026-06-20T02:46:10.951Z)
Latitude
-0.00003°
Longitude
-119.00602°
Altitude
482.362 km
Speed
7.626 km/s
True Right ascension
12h 43m 29s
True Declination
0° 00' 00"
Sunlit
Object was in daylight at epoch
Visualization orbit readout
Latitude
Unknown
Longitude
Unknown
Altitude
Unknown
Speed
Unknown
Apparent Right ascension
Unknown
Apparent Declination
Unknown
Sunlit
N/A
Visualization observer readout
Local Sidereal Time
07:21:53
Azimuth
Unknown
Elevation
Unknown
Doppler factor
Unknown
Orbital elements
Apogee altitude
486.399 km
Perigee altitude
483.511 km
Semi-major axis
6,863.092 km
Eccentricity
0.00021
Inclination
43.0027°
RAAN
190.8743°
Arg. of periapsis
287.162°
True anomaly
72.92315°
Mean anomaly
72.9001°
Eccentric anomaly
72.91162°
Mean motion
3.81736 °/min
Orbital period
94.31 mins
BSTAR
0.00044872
Loading maneuver chart data...
Computing Atmospheric mass density...
Loading historical data...
Loading historical data...
Loading historical data...
Loading historical data...
Loading historical data...
Loading historical data...
Loading historical data...

Documentation

Showing up to 5 results
|